Weather in Baotou

China     40˚37′21″N   109˚49′51″E
temp.,
°C
wind,
m/s
gust,
m/s
humid.,
%
clouds,
%
prec.,
mm/h
press.,
hPa
HPBL,
m
3 december, thu
thu323:00−10˚nne34580 0.0 1048175
02:00−11˚n34580 0.0 1048116
05:00−11˚nnw12590 0.0 104775
08:00−12˚n12600 0.0 104871
11:00−9˚n12450 0.0 1047368
14:00−7˚wsw22440 0.0 1043626
17:00−8˚wsw23520 0.0 1044220
20:00−9˚wnw12610 0.0 104566
4 december, fri
fri423:00−10˚n12610 0.0 104550
02:00−11˚n22630 0.0 104465
05:00−12˚n22650 0.0 104353
08:00−12˚n12660 0.0 104243
11:00−9˚nw11510 0.0 1041313
14:00−8˚wsw11450 0.0 1037519
17:00−8˚sw12560 0.0 103796
20:00−9˚wsw11640 0.0 103830
5 december, sat
sat523:00−10˚se11680 0.0 103829
02:00−10˚ese22720 0.0 103738
05:00−11˚e33750 0.0 103680
08:00−11˚e35790 0.0 1036120
11:00−9˚e34682 0.0 1035270
14:00−6˚ese22621 0.0 1031382
17:00−7˚ese127138 0.0 103174
20:00−8˚ese127945 0.0 103238
6 december, sun
sun623:00−9˚e128215 0.0 103234
02:00−9˚ese008527 0.0 103228
05:00−10˚w118718 0.0 103322
08:00−10˚nw11849 0.0 103531
11:00−7˚nnw23550 0.0 1037375
14:00−6˚nw34360 0.0 1036848
17:00−9˚n46460 0.0 1039359
20:00−11˚n47530 0.0 1043418
7 december, mon
mon723:00−12˚n57540 0.0 1045286
02:00−13˚n45520 0.0 1046187
05:00−14˚n23520 0.0 1046131
08:00−14˚n22510 0.0 1047106
11:00−12˚nne11370 0.0 1045324
14:00−10˚ssw11340 0.0 1041492
17:00−10˚sse11410 0.0 1041183
20:00−11˚ese22480 0.0 104279